Temp
66 65 66 65 66 66 65 65 65 67 68 68 67 66 66 66 66 65 65 64 64 64 64 63 62 62 62 63 62 61 60 60 60 58 55 56 54 58 58 58 59 60 58 55 55 52 50 49 51 55 56 56 57 57 56 57 58 57 56 54 56 56 53
66 65 65 65 65 65 64 65 66 66 67 67 67 66 64 64 64 63 64 64 63 64 64 62 62 62 61 60 59 59 60 59 60 59 57 55 55 54 53 55 55 55 55 55 56 54 50 49 50 50 51 55 55 54 55 54 54 55 56 57 57 58 56
65 64 65 65 65 65 64 64 64 64 65 64 64 63 63 64 63 63 63 63 62 63 62 61 61 60 59 59 59 60 60 59 58 58 57 54 55 55 54 53 53 52 53 54 53 52 54 51 49 50 51 52 51 50 53 54 53 55 56 56 56 55 55
65 65 65 65 65 65 64 63 63 63 63 61 62 62 62 63 63 63 62 62 62 63 62 61 60 60 58 59 60 60 59 58 57 57 57 55 55 55 54 53 51 52 52 51 50 52 50 49 49 51 51 52 51 51 52 54 55 57 57 55 56 56 57
65 65 65 64 64 64 64 63 63 63 61 61 60 60 61 62 62 61 62 62 63 62 62 62 61 60 60 59 58 58 57 56 57 56 55 54 54 54 53 52 52 53 53 52 53 52 51 50 50 49 50 50 53 51 54 55 57 56 59 58 58 56 58
65 65 65 64 65 64 64 63 62 60 59 59 59 60 60 61 61 61 62 62 62 62 61 61 60 60 59 58 57 57 57 56 55 55 54 53 54 53 53 53 53 53 52 52 53 52 51 51 49 46 50 52 51 52 55 53 56 57 60 58 59 59 58
65 64 64 64 64 64 64 63 62 60 59 59 59 60 61 61 61 62 62 62 62 62 61 60 59 59 58 58 57 56 56 55 55 55 54 54 54 53 53 53 53 53 52 53 52 52 52 51 49 47 48 47 48 51 53 53 56 56 56 59 58 61 56
65 65 64 64 64 64 63 63 61 60 59 59 60 60 61 61 61 61 61 60 60 60 60 59 59 58 59 58 58 56 56 55 55 55 54 54 55 54 53 52 53 52 51 52 51 53 53 52 51 49 47 47 46 46 49 51 52 54 54 56 59 61 57
66 65 64 64 64 65 64 62 61 60 60 59 60 61 61 61 60 60 60 59 59 59 59 59 58 58 58 57 56 57 56 58 55 54 53 54 53 53 53 52 53 51 52 52 53 51 51 53 52 50 49 46 44 44 45 46 47 50 56 54 55 57 58
65 64 64 64 64 64 62 61 60 60 60 60 61 61 60 60 60 59 58 58 58 58 57 58 58 57 57 56 55 55 55 55 55 54 53 53 53 52 52 52 51 51 51 52 54 54 53 52 52 50 50 48 46 43 41 41 45 46 52 54 52 56 59
65 64 64 64 64 62 61 60 60 60 60 60 61 61 60 59 58 60 58 57 57 57 57 57 57 57 56 56 56 55 54 54 54 54 54 54 53 53 53 52 51 51 51 52 53 53 53 51 50 52 50 50 48 46 44 42 44 48 48 50 54 54 57
65 65 64 64 64 62 60 60 59 59 59 59 59 59 59 60 60 58 58 57 58 58 58 57 57 56 56 55 55 55 55 54 53 53 54 54 53 53 51 51 50 52 52 52 52 53 53 52 51 50 50 51 51 49 47 44 41 44 50 49 51 56 55
65 64 63 63 62 61 61 60 59 59 59 60 59 59 59 59 59 57 57 57 57 57 57 56 57 56 55 55 55 54 54 54 54 53 53 54 54 52 50 50 50 50 50 50 51 52 52 53 53 51 51 51 49 49 47 45 44 45 47 51 51 54 56
63 63 63 63 62 61 61 60 60 61 60 59 59 59 59 59 58 58 57 57 57 56 56 56 56 56 55 55 55 55 54 54 54 52 52 52 53 52 50 50 51 52 52 52 50 51 51 50 51 52 51 49 49 48 49 46 45 45 44 47 51 52 53
63 62 62 62 61 61 60 60 61 61 60 60 60 59 59 58 58 58 57 57 56 56 56 56 55 55 55 54 54 55 54 53 52 50 50 50 50 53 50 50 52 52 52 51 51 53 51 52 53 52 50 50 49 50 50 49 47 46 44 46 49 52 51
63 63 62 61 60 60 60 60 61 60 60 60 60 60 59 58 58 58 57 56 56 56 56 55 54 55 54 53 54 54 53 51 50 51 51 51 52 51 50 49 49 51 53 51 50 50 51 51 52 52 51 50 48 49 50 50 47 46 45 46 47 50 49
63 62 61 61 60 60 60 61 61 61 61 61 60 59 59 59 58 57 57 56 56 56 55 55 55 55 55 54 54 53 52 52 52 51 52 52 51 51 49 50 50 52 51 49 48 49 49 49 50 50 49 50 49 50 50 48 48 49 47 46 47 49 51
63 62 62 61 60 60 60 60 61 61 61 60 60 60 59 59 58 58 57 57 56 56 55 56 55 54 54 53 54 54 54 52 51 52 51 51 55 50 50 49 50 51 50 49 47 48 49 48 51 49 48 49 48 49 50 48 48 47 45 45 46 45 49
63 62 61 61 60 60 60 61 61 61 61 60 60 60 59 59 59 58 58 57 56 56 56 56 55 55 54 54 54 54 53 51 52 52 51 51 51 50 50 50 50 50 50 48 46 46 47 48 49 48 47 47 48 47 46 47 47 46 46 45 45 46 47
62 61 60 60 60 60 61 61 61 61 61 60 60 59 59 58 58 58 58 57 57 56 56 55 55 54 54 55 54 53 52 52 52 52 51 52 52 52 52 51 50 50 49 48 46 45 45 46 48 46 46 46 47 45 46 46 46 46 45 45 45 44 46
62 61 60 60 60 61 62 63 63 61 61 60 60 59 59 58 58 58 57 57 57 56 55 55 55 54 55 53 53 52 53 53 52 51 51 52 53 52 51 50 50 50 49 48 46 44 45 45 45 45 44 45 44 44 44 44 44 43 43 44 42 42 43
61 60 60 60 60 61 63 63 62 61 60 60 60 59 58 58 58 57 57 57 56 56 55 55 56 55 54 53 53 53 53 52 52 52 52 52 52 52 51 50 50 50 53 56 55 53 52 52 46 43 44 43 43 42 42 43 44 41 42 42 42 43 41
60 60 60 60 61 62 63 63 63 62 60 60 59 58 58 58 58 57 56 56 55 55 55 56 58 56 55 54 53 53 53 52 52 53 53 50 50 51 50 50 53 59 57 55 52 49 47 50 53 48 44 41 41 41 41 40 40 41 42 41 40 40 41
60 60 61 61 61 62 62 62 62 61 60 59 58 58 58 57 56 56 56 55 54 55 55 57 51 48 49 52 54 52 52 52 52 52 51 51 50 51 51 51 50 54 53 54 49 47 46 46 45 46 48 51 51 44 41 40 41 41 42 41 40 40 39
60 60 61 61 62 63 62 62 61 60 59 57 57 57 57 56 55 55 55 55 53 52 52 52 46 48 48 49 52 53 51 51 51 51 52 52 51 49 49 50 49 50 47 46 46 46 47 46 44 43 43 43 43 44 46 45 44 42 41 40 39 40 39
60 60 60 61 61 62 62 62 61 59 59 58 56 57 56 55 55 54 55 53 51 50 48 46 46 47 47 47 48 51 51 51 52 52 53 53 51 50 50 50 49 48 51 57 52 45 44 45 47 45 45 45 45 44 41 40 42 45 42 41 39 40 41
59 60 60 61 61 61 61 61 61 60 60 59 58 57 56 55 54 54 54 51 50 48 47 46 45 46 46 46 46 49 51 52 52 52 54 54 53 52 52 50 48 48 46 48 45 45 45 45 45 45 43 42 42 46 45 43 42 41 42 43 41 42 46
59 60 60 61 61 61 61 60 60 60 60 59 58 58 57 55 54 53 52 51 49 48 49 45 44 45 45 46 47 49 52 53 53 53 55 55 54 54 52 51 49 48 45 44 45 43 42 42 43 45 44 44 44 45 44 44 43 44 44 43 43 44 46
59 60 60 60 60 60 60 60 59 58 58 57 57 57 55 54 53 52 51 50 49 48 47 43 44 44 45 45 47 52 51 53 53 54 55 55 54 54 53 51 49 47 46 44 46 44 43 40 42 43 43 43 45 46 46 49 46 46 47 45 45 46 47
59 59 60 60 60 60 59 59 58 59 58 57 57 56 55 54 52 51 50 50 49 47 45 43 43 44 44 45 48 50 52 54 53 53 53 54 54 53 51 48 48 47 46 43 42 39 41 44 41 43 43 43 45 45 45 48 46 44 44 44 43 43 43
59 59 59 59 59 59 60 60 58 59 59 57 56 55 54 53 51 51 50 49 50 48 46 45 43 44 44 45 49 51 52 53 53 53 53 52 52 50 51 58 52 47 45 43 40 39 40 43 41 42 42 42 43 42 41 43 45 46 46 45 45 44 44
59 59 59 59 59 59 59 59 58 59 58 58 57 55 54 52 50 50 50 50 52 50 47 46 43 43 44 45 49 49 52 53 52 51 52 51 50 50 48 53 53 49 47 43 39 39 41 43 40 41 42 42 41 42 42 40 41 42 44 45 47 48 48
59 59 59 58 59 59 60 59 58 58 57 58 57 55 53 52 50 49 49 50 50 50 48 46 44 42 44 44 47 50 49 49 52 51 51 52 49 45 44 43 46 43 42 40 39 38 40 41 41 40 40 41 41 43 41 39 43 42 42 42 43 45 46
59 60 60 59 59 60 60 58 58 57 56 56 55 53 53 51 50 49 49 48 50 49 49 47 45 42 43 44 45 47 46 46 46 51 51 51 48 46 45 43 42 43 41 41 40 39 38 39 41 40 40 41 44 43 40 40 42 47 42 43 44 44 46
61 60 60 60 59 59 58 59 58 57 55 54 53 52 52 51 50 50 50 51 51 50 51 50 46 43 42 43 43 44 47 45 45 46 48 46 44 45 46 45 44 43 42 41 41 40 39 38 38 40 40 42 42 40 40 42 41 42 43 44 43 44 44
60 60 60 60 60 57 57 58 56 55 54 53 52 51 51 51 51 50 51 52 52 51 51 50 47 46 42 43 42 42 43 43 41 46 43 42 41 42 41 44 46 45 41 41 41 40 40 39 41 39 40 41 40 39 41 41 40 43 42 43 43 43 44
61 61 60 59 57 54 54 55 53 53 53 53 52 51 50 51 51 50 50 50 51 51 51 50 46 45 45 42 42 41 42 42 42 42 44 42 42 41 40 42 46 42 41 41 41 41 39 40 40 40 40 40 40 41 41 40 41 42 42 42 43 43 45
MSLP
1016.51 1016.83 1016.99 1017.23 1017.31 1017.43 1017.67 1017.83 1017.87 1017.91 1017.87 1017.95 1018.11 1018.27 1018.35 1018.47 1018.59 1018.75 1018.87 1019.07 1019.39 1019.67 1019.79 1019.99 1020.15 1020.23 1020.35 1020.43 1020.39 1020.47 1020.51 1020.63 1020.75 1021.07 1021.59 1021.59 1021.55 1021.67 1021.43 1021.43 1021.47 1021.55 1021.71 1021.83 1022.03 1022.51 1023.15 1023.99 1024.03 1023.71 1023.59 1023.47 1023.35 1023.27 1023.19 1023.15 1023.07 1023.07 1023.07 1023.07 1023.03 1022.95 1022.95
1016.31 1016.59 1016.83 1017.07 1017.43 1017.55 1017.83 1017.91 1017.99 1018.11 1018.15 1018.19 1018.23 1018.35 1018.51 1018.63 1018.75 1018.91 1019.03 1019.23 1019.43 1019.75 1019.91 1020.11 1020.23 1020.31 1020.47 1020.59 1020.59 1020.63 1020.75 1020.91 1020.99 1021.23 1021.43 1021.75 1021.67 1021.75 1021.59 1021.75 1021.75 1021.99 1022.11 1022.27 1022.39 1022.27 1022.83 1023.55 1023.87 1023.91 1023.87 1023.67 1023.47 1023.31 1023.19 1023.11 1023.03 1022.99 1022.91 1022.95 1022.99 1022.99 1022.99
1016.39 1016.71 1016.83 1017.19 1017.47 1017.59 1017.91 1018.03 1018.15 1018.27 1018.35 1018.47 1018.47 1018.55 1018.67 1018.79 1018.91 1019.07 1019.23 1019.43 1019.59 1019.79 1019.95 1020.11 1020.23 1020.43 1020.63 1020.71 1020.75 1020.83 1020.91 1020.99 1021.19 1021.27 1021.55 1021.83 1021.91 1021.99 1021.95 1021.95 1021.87 1021.99 1022.03 1022.19 1022.43 1022.43 1022.43 1022.59 1023.15 1023.71 1023.63 1023.67 1023.75 1023.23 1023.15 1023.07 1022.91 1022.95 1022.83 1022.91 1023.03 1023.07 1023.03
1016.23 1016.47 1016.91 1017.23 1017.39 1017.63 1017.95 1018.19 1018.31 1018.43 1018.47 1018.59 1018.67 1018.79 1018.87 1018.95 1019.07 1019.19 1019.39 1019.59 1019.71 1019.87 1020.15 1020.11 1020.35 1020.67 1020.83 1020.79 1020.87 1020.91 1020.99 1021.11 1021.31 1021.47 1021.67 1021.87 1021.95 1022.03 1022.11 1022.19 1022.39 1022.35 1022.39 1022.79 1022.91 1022.79 1022.63 1022.59 1022.91 1023.27 1023.55 1023.75 1023.27 1023.31 1023.03 1022.91 1022.95 1022.95 1022.91 1023.07 1023.03 1023.15 1022.99
1015.83 1016.19 1016.59 1017.07 1017.31 1017.63 1017.91 1018.23 1018.39 1018.55 1018.71 1018.79 1018.87 1018.99 1019.11 1019.15 1019.27 1019.43 1019.51 1019.67 1019.87 1020.11 1020.27 1020.35 1020.59 1020.79 1020.87 1020.91 1020.95 1021.03 1021.23 1021.35 1021.47 1021.59 1021.79 1021.95 1022.07 1022.23 1022.39 1022.55 1022.67 1022.75 1022.75 1022.83 1022.95 1022.91 1022.75 1022.91 1022.95 1023.27 1023.23 1023.31 1023.55 1023.19 1023.03 1023.07 1023.11 1023.03 1023.03 1023.15 1023.15 1023.07 1023.07
1015.75 1016.03 1016.47 1016.87 1017.15 1017.51 1017.79 1018.19 1018.47 1018.75 1018.87 1018.99 1019.07 1019.15 1019.27 1019.27 1019.35 1019.55 1019.71 1019.83 1020.03 1020.23 1020.39 1020.51 1020.75 1020.91 1020.99 1021.03 1021.07 1021.23 1021.43 1021.55 1021.67 1021.75 1021.95 1022.15 1022.23 1022.39 1022.67 1022.79 1022.83 1022.87 1022.95 1023.03 1022.87 1022.91 1023.19 1023.35 1023.07 1022.83 1023.39 1023.35 1023.07 1023.15 1023.11 1023.15 1023.23 1023.11 1023.11 1023.31 1023.19 1023.07 1023.15
1015.71 1015.99 1016.35 1016.67 1016.99 1017.27 1017.55 1017.95 1018.27 1018.55 1018.79 1018.87 1018.95 1019.11 1019.19 1019.31 1019.43 1019.59 1019.75 1019.87 1019.99 1020.23 1020.51 1020.71 1020.87 1021.03 1021.15 1021.15 1021.23 1021.51 1021.67 1021.83 1021.83 1021.95 1022.15 1022.31 1022.47 1022.67 1022.75 1022.83 1022.95 1022.91 1022.91 1022.95 1022.99 1022.95 1023.03 1022.91 1023.15 1023.19 1023.03 1023.35 1023.47 1023.35 1023.31 1023.43 1023.51 1023.35 1023.31 1023.27 1023.27 1023.15 1023.27
1015.51 1015.91 1016.27 1016.47 1016.79 1017.23 1017.59 1017.95 1018.31 1018.55 1018.67 1018.79 1018.87 1019.03 1019.19 1019.35 1019.55 1019.83 1020.07 1020.23 1020.35 1020.43 1020.63 1020.87 1021.03 1021.19 1021.27 1021.23 1021.51 1021.75 1021.83 1021.91 1022.03 1022.15 1022.31 1022.43 1022.63 1022.79 1022.91 1022.99 1022.95 1022.99 1023.07 1023.11 1023.03 1023.07 1023.11 1023.19 1023.31 1023.43 1023.11 1023.11 1023.63 1023.83 1023.91 1023.95 1023.75 1023.71 1023.91 1023.55 1023.39 1023.35 1023.35
1015.31 1015.71 1016.11 1016.43 1016.75 1017.03 1017.47 1017.87 1018.23 1018.47 1018.55 1018.67 1018.87 1019.03 1019.31 1019.43 1019.67 1019.87 1020.15 1020.39 1020.51 1020.63 1020.83 1021.03 1021.19 1021.31 1021.31 1021.47 1021.79 1021.83 1021.95 1022.07 1022.19 1022.35 1022.55 1022.63 1022.79 1022.91 1022.99 1023.03 1023.07 1023.23 1023.19 1023.11 1023.11 1023.15 1023.15 1023.27 1023.43 1023.59 1023.75 1023.75 1023.47 1023.87 1024.11 1024.03 1023.99 1024.11 1023.83 1023.83 1023.55 1023.43 1023.35
1015.23 1015.59 1015.91 1016.31 1016.67 1017.03 1017.47 1017.87 1018.15 1018.31 1018.39 1018.59 1018.87 1019.11 1019.31 1019.43 1019.63 1019.83 1020.11 1020.31 1020.51 1020.67 1020.95 1021.15 1021.27 1021.31 1021.43 1021.71 1021.91 1021.95 1022.07 1022.19 1022.31 1022.51 1022.63 1022.75 1022.99 1023.07 1023.11 1023.15 1023.23 1023.23 1023.15 1023.07 1023.07 1023.15 1023.23 1023.35 1023.51 1023.67 1023.75 1023.83 1024.07 1023.91 1024.19 1024.31 1024.51 1024.35 1024.03 1023.91 1023.95 1023.55 1023.35
1015.11 1015.43 1015.75 1016.19 1016.63 1017.11 1017.55 1017.91 1018.11 1018.27 1018.43 1018.63 1018.87 1019.15 1019.31 1019.55 1019.83 1019.95 1020.23 1020.55 1020.63 1020.75 1020.99 1021.19 1021.27 1021.39 1021.59 1021.79 1021.91 1022.03 1022.19 1022.35 1022.47 1022.59 1022.75 1022.87 1023.03 1023.07 1023.15 1023.27 1023.31 1023.23 1023.07 1023.03 1023.11 1023.23 1023.35 1023.55 1023.67 1023.71 1023.83 1023.99 1024.07 1024.23 1024.59 1024.55 1024.55 1024.51 1024.27 1024.03 1023.91 1023.83 1023.47
1015.03 1015.39 1015.75 1016.19 1016.59 1017.07 1017.51 1017.87 1018.07 1018.15 1018.43 1018.71 1018.95 1019.23 1019.51 1019.71 1019.91 1020.03 1020.19 1020.55 1020.63 1020.79 1020.99 1021.19 1021.35 1021.51 1021.67 1021.79 1021.99 1022.15 1022.31 1022.39 1022.51 1022.67 1022.87 1022.95 1023.11 1023.11 1023.23 1023.31 1023.31 1023.07 1022.99 1023.07 1023.23 1023.31 1023.43 1023.55 1023.75 1023.87 1023.87 1023.91 1024.07 1024.19 1024.39 1024.71 1024.79 1024.43 1024.39 1024.35 1024.03 1023.79 1023.75
1014.99 1015.35 1015.75 1016.19 1016.71 1017.11 1017.47 1017.79 1017.95 1018.15 1018.39 1018.63 1018.91 1019.19 1019.43 1019.63 1019.83 1020.03 1020.27 1020.47 1020.67 1020.83 1021.03 1021.23 1021.39 1021.55 1021.71 1021.83 1021.99 1022.15 1022.35 1022.43 1022.59 1022.71 1022.91 1023.07 1023.19 1023.23 1023.31 1023.35 1023.31 1023.11 1023.07 1023.15 1023.35 1023.51 1023.63 1023.63 1023.67 1023.83 1023.95 1024.03 1024.19 1024.23 1024.39 1024.75 1024.95 1024.87 1024.39 1024.31 1024.19 1023.87 1023.75
1015.11 1015.39 1015.83 1016.19 1016.71 1017.11 1017.47 1017.71 1017.79 1017.91 1018.23 1018.59 1018.79 1019.15 1019.43 1019.67 1019.83 1019.99 1020.23 1020.47 1020.63 1020.83 1021.03 1021.19 1021.35 1021.51 1021.67 1021.83 1022.03 1022.15 1022.31 1022.47 1022.59 1022.79 1022.91 1023.07 1023.11 1023.15 1023.27 1023.27 1023.19 1023.15 1023.19 1023.31 1023.63 1023.79 1023.87 1023.91 1023.87 1023.91 1024.03 1024.15 1024.31 1024.39 1024.43 1024.63 1024.75 1024.75 1024.47 1024.27 1024.15 1023.99 1023.79
1015.07 1015.47 1015.87 1016.31 1016.71 1017.07 1017.39 1017.55 1017.63 1017.83 1018.19 1018.51 1018.67 1019.07 1019.43 1019.67 1019.79 1019.99 1020.19 1020.39 1020.63 1020.79 1020.95 1021.07 1021.27 1021.47 1021.59 1021.75 1021.99 1022.19 1022.31 1022.43 1022.63 1022.87 1022.99 1023.07 1023.23 1023.31 1023.27 1023.19 1023.19 1023.19 1023.23 1023.43 1023.67 1023.83 1024.03 1024.03 1024.03 1024.07 1024.39 1024.39 1024.43 1024.47 1024.51 1024.51 1024.67 1024.67 1024.63 1024.31 1024.03 1023.91 1023.83
1015.07 1015.47 1015.91 1016.31 1016.71 1017.03 1017.27 1017.39 1017.51 1017.75 1018.07 1018.39 1018.67 1019.03 1019.35 1019.55 1019.71 1019.87 1020.11 1020.31 1020.51 1020.71 1020.83 1021.03 1021.23 1021.35 1021.51 1021.67 1021.91 1022.15 1022.31 1022.51 1022.79 1022.91 1022.99 1023.11 1023.19 1023.31 1023.31 1023.27 1023.23 1023.27 1023.31 1023.47 1023.71 1023.95 1024.11 1024.11 1024.15 1024.27 1024.55 1024.75 1024.67 1024.55 1024.51 1024.59 1024.63 1024.59 1024.51 1024.39 1024.19 1024.11 1024.07
1015.07 1015.43 1015.87 1016.23 1016.63 1016.91 1017.11 1017.27 1017.47 1017.71 1017.95 1018.23 1018.67 1018.99 1019.19 1019.39 1019.55 1019.79 1019.99 1020.23 1020.39 1020.51 1020.71 1020.95 1021.15 1021.31 1021.43 1021.63 1021.83 1022.07 1022.31 1022.55 1022.75 1022.91 1022.95 1023.07 1023.23 1023.31 1023.35 1023.27 1023.27 1023.31 1023.55 1023.79 1024.03 1024.19 1024.35 1024.39 1024.35 1024.51 1024.67 1024.87 1024.91 1024.67 1024.63 1024.59 1024.59 1024.59 1024.51 1024.59 1024.31 1024.27 1024.35
1014.95 1015.35 1015.75 1016.15 1016.55 1016.79 1016.99 1017.23 1017.43 1017.59 1017.83 1018.23 1018.51 1018.79 1019.07 1019.19 1019.39 1019.63 1019.87 1020.03 1020.23 1020.39 1020.63 1020.83 1021.03 1021.23 1021.39 1021.59 1021.79 1021.99 1022.23 1022.51 1022.75 1022.87 1022.95 1023.11 1023.15 1023.23 1023.27 1023.31 1023.39 1023.47 1023.67 1023.99 1024.35 1024.47 1024.67 1024.63 1024.63 1024.75 1024.91 1025.07 1024.99 1024.91 1024.79 1024.83 1024.75 1024.75 1024.75 1024.79 1024.71 1024.47 1024.47
1014.83 1015.27 1015.67 1016.11 1016.43 1016.67 1016.91 1017.11 1017.27 1017.43 1017.71 1018.07 1018.35 1018.59 1018.79 1018.99 1019.19 1019.47 1019.71 1019.91 1020.11 1020.31 1020.55 1020.75 1020.95 1021.15 1021.35 1021.59 1021.75 1021.99 1022.23 1022.51 1022.71 1022.83 1022.95 1023.11 1023.23 1023.35 1023.51 1023.67 1023.75 1023.79 1023.87 1024.15 1024.51 1024.71 1024.79 1024.91 1024.91 1024.99 1025.11 1025.19 1025.15 1024.99 1024.99 1024.95 1025.03 1024.99 1024.91 1024.95 1024.91 1024.83 1024.63
1014.71 1015.23 1015.67 1015.99 1016.35 1016.63 1016.79 1016.91 1017.03 1017.31 1017.59 1017.83 1018.15 1018.43 1018.63 1018.87 1019.07 1019.27 1019.55 1019.79 1020.03 1020.23 1020.47 1020.71 1020.91 1021.15 1021.35 1021.55 1021.75 1021.99 1022.27 1022.47 1022.63 1022.75 1022.91 1023.07 1023.35 1023.63 1023.87 1024.03 1024.15 1024.19 1024.31 1024.51 1024.63 1024.75 1024.87 1025.03 1025.19 1025.31 1025.39 1025.31 1025.23 1025.07 1025.11 1025.27 1025.31 1025.15 1025.23 1025.15 1025.03 1025.07 1024.99
1014.75 1015.23 1015.67 1015.99 1016.23 1016.39 1016.55 1016.67 1016.83 1017.19 1017.47 1017.75 1018.03 1018.23 1018.47 1018.67 1018.91 1019.19 1019.47 1019.67 1019.91 1020.15 1020.43 1020.67 1020.87 1021.11 1021.31 1021.55 1021.75 1021.99 1022.23 1022.35 1022.51 1022.75 1022.95 1023.27 1023.63 1023.99 1024.19 1024.31 1024.31 1024.43 1024.59 1024.83 1024.83 1024.91 1024.91 1025.07 1025.31 1025.39 1025.47 1025.35 1025.31 1025.23 1025.31 1025.39 1025.35 1025.43 1025.43 1025.39 1025.55 1025.59 1025.47
1014.83 1015.31 1015.71 1015.95 1016.15 1016.27 1016.31 1016.43 1016.75 1017.07 1017.39 1017.67 1017.87 1018.11 1018.31 1018.51 1018.83 1019.15 1019.39 1019.63 1019.87 1020.15 1020.39 1020.59 1020.79 1020.99 1021.27 1021.55 1021.71 1021.91 1022.15 1022.31 1022.51 1022.75 1023.03 1023.39 1023.67 1023.99 1024.23 1024.39 1024.47 1024.55 1024.67 1024.91 1024.99 1025.03 1025.07 1025.15 1025.27 1025.39 1025.51 1025.43 1025.43 1025.43 1025.47 1025.55 1025.59 1025.63 1025.67 1025.59 1025.59 1025.83 1025.67
1014.87 1015.31 1015.71 1015.91 1015.99 1016.03 1016.15 1016.43 1016.67 1017.03 1017.31 1017.51 1017.79 1018.03 1018.27 1018.47 1018.71 1019.03 1019.31 1019.59 1019.87 1020.11 1020.35 1020.55 1020.67 1020.87 1021.15 1021.39 1021.63 1021.87 1022.11 1022.31 1022.51 1022.63 1022.87 1023.23 1023.47 1023.71 1023.95 1024.19 1024.51 1024.55 1024.79 1025.03 1025.11 1025.15 1025.15 1025.23 1025.39 1025.51 1025.51 1025.51 1025.51 1025.51 1025.59 1025.59 1025.71 1025.83 1025.83 1025.79 1025.95 1026.07 1025.87
1014.91 1015.31 1015.55 1015.79 1015.87 1015.91 1016.11 1016.35 1016.59 1016.95 1017.27 1017.51 1017.75 1017.99 1018.19 1018.43 1018.71 1018.95 1019.23 1019.51 1019.83 1020.07 1020.27 1020.43 1020.63 1020.87 1021.11 1021.31 1021.59 1021.87 1022.07 1022.27 1022.47 1022.71 1023.11 1023.39 1023.59 1023.71 1023.87 1024.03 1024.27 1024.55 1024.87 1025.11 1025.23 1025.23 1025.23 1025.35 1025.47 1025.55 1025.55 1025.59 1025.67 1025.63 1025.51 1025.55 1025.67 1025.79 1025.83 1025.95 1026.11 1025.95 1025.91
1014.87 1015.23 1015.47 1015.67 1015.75 1015.83 1016.07 1016.31 1016.59 1016.91 1017.19 1017.51 1017.75 1017.95 1018.15 1018.39 1018.67 1018.95 1019.23 1019.51 1019.83 1020.11 1020.27 1020.43 1020.67 1020.87 1021.11 1021.31 1021.55 1021.83 1022.11 1022.35 1022.59 1022.75 1023.03 1023.35 1023.55 1023.71 1023.91 1024.11 1024.39 1024.59 1024.87 1025.07 1025.19 1025.23 1025.27 1025.39 1025.51 1025.63 1025.67 1025.71 1025.67 1025.79 1025.83 1025.71 1025.51 1025.63 1025.79 1025.87 1025.91 1025.79 1025.83
1014.79 1015.15 1015.39 1015.55 1015.71 1015.83 1015.99 1016.27 1016.59 1016.91 1017.15 1017.39 1017.67 1017.91 1018.15 1018.39 1018.71 1018.95 1019.23 1019.63 1020.03 1020.31 1020.51 1020.75 1020.71 1020.91 1021.11 1021.35 1021.63 1021.91 1022.23 1022.39 1022.51 1022.67 1022.99 1023.23 1023.43 1023.63 1023.99 1024.15 1024.39 1024.59 1024.79 1024.87 1025.07 1025.23 1025.27 1025.31 1025.47 1025.67 1025.79 1025.75 1025.71 1025.67 1025.71 1025.83 1025.95 1025.79 1025.87 1025.95 1025.91 1025.67 1025.47
1014.71 1015.07 1015.31 1015.51 1015.67 1015.79 1015.95 1016.23 1016.51 1016.75 1017.07 1017.35 1017.59 1017.87 1018.11 1018.39 1018.71 1018.99 1019.31 1019.75 1020.23 1020.59 1020.79 1021.03 1020.87 1021.07 1021.27 1021.47 1021.71 1021.91 1022.15 1022.35 1022.55 1022.71 1022.87 1023.11 1023.35 1023.59 1023.83 1024.07 1024.27 1024.43 1024.63 1024.75 1024.99 1025.15 1025.31 1025.39 1025.43 1025.51 1025.55 1025.55 1025.51 1025.47 1025.51 1025.59 1025.67 1025.87 1026.07 1025.95 1025.87 1025.59 1024.91
1014.63 1014.99 1015.27 1015.47 1015.63 1015.75 1015.91 1016.23 1016.51 1016.75 1016.95 1017.19 1017.47 1017.75 1017.99 1018.35 1018.71 1018.99 1019.43 1019.91 1020.31 1020.75 1020.99 1021.15 1021.03 1021.19 1021.39 1021.55 1021.75 1021.95 1022.23 1022.43 1022.55 1022.63 1022.67 1022.87 1023.23 1023.43 1023.67 1023.91 1024.07 1024.23 1024.51 1024.67 1024.83 1024.99 1025.07 1025.19 1025.23 1025.31 1025.35 1025.27 1025.31 1025.23 1025.39 1025.43 1025.47 1025.55 1025.71 1025.87 1025.71 1025.35 1024.91
1014.51 1014.91 1015.19 1015.43 1015.59 1015.75 1015.91 1016.07 1016.39 1016.71 1016.95 1017.19 1017.47 1017.71 1018.07 1018.31 1018.63 1018.99 1019.51 1019.91 1020.31 1020.75 1021.19 1021.27 1021.11 1021.27 1021.43 1021.59 1021.79 1021.95 1022.23 1022.35 1022.39 1022.47 1022.67 1022.83 1023.11 1023.27 1023.47 1023.67 1023.87 1024.15 1024.39 1024.55 1024.79 1024.87 1024.99 1025.15 1025.11 1025.15 1025.11 1024.99 1024.95 1024.99 1025.11 1025.11 1025.11 1025.23 1025.31 1025.35 1025.27 1025.07 1024.83
1014.39 1014.75 1015.03 1015.27 1015.47 1015.63 1015.83 1016.07 1016.35 1016.51 1016.83 1017.11 1017.39 1017.63 1017.95 1018.27 1018.63 1019.11 1019.63 1019.91 1020.23 1020.79 1021.23 1021.51 1021.23 1021.31 1021.43 1021.63 1021.83 1022.03 1022.15 1022.23 1022.35 1022.51 1022.59 1022.75 1022.95 1023.15 1023.35 1023.51 1023.75 1024.07 1024.35 1024.51 1024.75 1024.83 1025.03 1025.07 1025.07 1025.07 1025.07 1024.95 1025.11 1024.91 1024.99 1025.07 1025.11 1025.19 1025.23 1025.19 1025.07 1024.95 1024.79
1014.15 1014.51 1014.79 1014.99 1015.19 1015.43 1015.67 1015.87 1016.15 1016.31 1016.63 1016.99 1017.31 1017.59 1017.91 1018.31 1018.87 1019.19 1019.51 1019.91 1020.19 1020.67 1021.19 1021.51 1021.43 1021.23 1021.35 1021.55 1021.71 1021.91 1022.03 1022.19 1022.35 1022.43 1022.55 1022.67 1022.83 1023.03 1023.15 1023.31 1023.59 1023.95 1024.15 1024.43 1024.79 1024.79 1024.95 1024.95 1024.91 1025.07 1025.11 1024.99 1024.99 1024.87 1025.03 1025.31 1025.15 1024.91 1024.83 1024.75 1024.63 1024.51 1024.39
1013.91 1014.19 1014.47 1014.67 1014.87 1015.19 1015.43 1015.71 1015.99 1016.19 1016.47 1016.83 1017.19 1017.55 1017.87 1018.35 1019.03 1019.35 1019.55 1019.87 1020.19 1020.47 1021.03 1021.35 1021.55 1021.43 1021.43 1021.59 1021.83 1022.03 1022.03 1022.11 1022.27 1022.39 1022.51 1022.67 1022.87 1023.07 1023.23 1023.31 1023.47 1023.75 1024.03 1024.39 1024.63 1024.83 1024.87 1024.79 1024.83 1024.95 1025.15 1025.03 1024.87 1024.79 1025.11 1025.31 1025.11 1024.99 1024.87 1024.67 1024.23 1024.31 1024.07
1013.63 1013.87 1014.15 1014.47 1014.79 1015.03 1015.27 1015.63 1015.91 1016.19 1016.51 1016.79 1017.15 1017.47 1017.87 1018.35 1018.95 1019.43 1019.67 1019.95 1020.31 1020.55 1020.87 1021.31 1021.51 1021.55 1021.51 1021.59 1021.71 1021.99 1022.11 1022.03 1022.11 1022.31 1022.51 1022.63 1023.03 1023.35 1023.43 1023.51 1023.59 1023.75 1023.99 1024.31 1024.47 1024.63 1024.71 1024.75 1024.71 1025.03 1025.15 1024.91 1024.83 1024.63 1025.15 1025.11 1025.15 1025.31 1025.23 1025.19 1024.91 1024.71 1024.51
1013.39 1013.75 1013.99 1014.27 1014.59 1014.95 1015.19 1015.47 1015.79 1016.11 1016.43 1016.79 1017.07 1017.47 1017.83 1018.35 1018.91 1019.39 1019.71 1019.99 1020.19 1020.47 1020.63 1020.87 1021.27 1021.47 1021.59 1021.63 1021.71 1021.87 1022.11 1022.19 1022.27 1022.27 1022.43 1022.55 1022.87 1023.23 1023.55 1023.55 1023.63 1023.71 1023.87 1024.07 1024.27 1024.43 1024.59 1024.67 1024.75 1024.87 1024.95 1024.95 1024.95 1025.07 1025.27 1024.99 1024.99 1025.23 1025.23 1025.03 1024.83 1024.63 1024.35
1013.19 1013.51 1013.87 1014.23 1014.47 1014.75 1015.07 1015.35 1015.63 1015.95 1016.35 1016.67 1017.03 1017.39 1017.83 1018.31 1018.83 1019.31 1019.63 1019.79 1020.03 1020.31 1020.51 1020.63 1020.99 1021.35 1021.47 1021.59 1021.71 1021.95 1022.03 1022.27 1022.31 1022.27 1022.47 1022.59 1022.99 1023.11 1023.15 1023.35 1023.55 1023.67 1023.63 1023.83 1024.03 1024.23 1024.43 1024.59 1024.71 1024.71 1024.79 1024.91 1025.03 1025.11 1024.99 1025.19 1025.19 1025.11 1024.99 1024.91 1024.83 1024.59 1024.19
1013.03 1013.39 1013.71 1013.95 1014.23 1014.71 1015.03 1015.35 1015.67 1015.91 1016.27 1016.67 1017.07 1017.47 1017.87 1018.23 1018.67 1019.11 1019.43 1019.59 1019.79 1020.07 1020.31 1020.63 1020.71 1021.07 1021.43 1021.51 1021.67 1021.95 1022.11 1022.27 1022.47 1022.51 1022.59 1022.83 1022.99 1023.11 1023.31 1023.39 1023.39 1023.43 1023.59 1023.75 1023.91 1024.07 1024.27 1024.43 1024.55 1024.55 1024.63 1024.75 1024.79 1024.95 1025.07 1024.99 1025.07 1024.95 1024.87 1024.79 1024.79 1024.39 1023.99
1012.79 1013.11 1013.51 1013.87 1014.31 1014.79 1015.07 1015.35 1015.71 1015.95 1016.19 1016.59 1017.11 1017.51 1017.87 1018.15 1018.51 1018.87 1019.15 1019.43 1019.55 1019.83 1020.15 1020.39 1020.75 1020.87 1021.23 1021.43 1021.55 1021.87 1022.11 1022.23 1022.47 1022.63 1022.75 1022.83 1023.11 1023.35 1023.27 1023.11 1023.19 1023.59 1023.51 1023.63 1023.75 1023.95 1024.15 1024.27 1024.27 1024.35 1024.47 1024.47 1024.59 1024.83 1024.91 1024.83 1024.75 1024.79 1024.79 1024.71 1024.39 1024.03 1023.63
Wind_Speed
8 8 9 7 6 6 7 6 5 5 5 5 6 6 5 5 5 5 5 6 7 6 6 6 5 5 5 4 5 5 6 5 6 7 3 1 4 2 1 4 6 6 4 3 5 7 5 5 2 1 0 2 0 0 1 2 1 1 4 4 4 4 3
7 8 8 8 8 7 8 6 5 5 6 6 6 6 5 5 6 6 7 7 7 7 6 5 5 6 6 5 5 6 6 6 6 5 6 4 4 2 3 4 5 5 5 4 2 2 4 4 1 3 2 1 1 2 4 3 3 2 3 4 4 0 3
8 8 9 9 9 8 8 6 6 6 5 5 5 5 6 6 6 6 7 7 7 7 6 6 6 6 4 5 5 5 6 8 5 7 7 5 5 5 5 3 4 3 5 6 5 4 4 3 6 5 4 4 2 3 2 4 4 3 4 2 1 4 3
11 11 10 10 9 8 8 7 6 5 5 6 5 5 6 6 6 5 6 6 7 7 6 6 6 6 4 5 5 6 7 8 7 7 7 5 6 7 7 7 6 6 4 3 2 4 3 3 5 3 1 4 5 2 3 3 2 4 2 3 4 3 6
12 10 12 11 10 10 10 8 6 6 5 5 4 6 6 5 6 6 5 6 6 6 6 6 5 4 4 5 6 6 6 6 6 7 6 7 7 7 6 6 6 5 5 5 3 4 5 3 4 3 2 0 1 1 2 1 1 3 6 5 4 3 6
10 11 11 10 10 10 9 9 8 7 6 6 5 7 6 6 6 7 6 6 6 5 5 5 5 5 5 6 7 7 7 7 6 6 7 6 7 7 7 5 6 6 5 3 5 5 4 5 5 4 0 0 1 1 1 2 0 2 6 4 4 5 5
10 10 10 10 9 9 8 9 9 8 8 7 7 7 7 6 5 5 5 6 6 7 6 6 6 5 5 7 7 7 6 5 6 7 7 7 7 6 5 6 6 6 6 5 4 6 5 6 5 3 0 4 2 2 2 3 2 5 5 4 4 7 4
9 9 9 9 9 9 8 9 7 7 7 7 7 7 6 7 7 7 7 6 5 6 6 5 5 5 6 7 7 6 6 6 7 7 7 7 8 7 6 5 6 6 6 5 5 6 5 6 5 3 4 5 3 4 3 2 3 7 2 3 4 6 4
9 9 8 8 8 9 9 9 8 7 7 7 6 6 7 8 8 8 7 6 5 6 5 5 6 6 7 8 7 6 7 4 7 7 6 7 7 6 6 5 7 5 4 4 5 6 6 6 6 5 6 5 6 2 3 5 5 3 3 4 3 4 5
10 10 9 10 10 9 9 8 8 8 7 6 6 7 9 8 8 8 8 8 7 5 6 6 7 6 6 6 6 6 7 6 7 7 6 7 6 6 6 5 6 5 4 4 5 6 6 5 6 6 6 6 4 6 2 4 3 2 4 3 3 4 4
9 9 10 11 10 10 9 8 7 7 7 6 8 8 8 9 9 9 8 5 5 6 6 6 6 6 6 6 7 6 6 5 6 6 6 6 6 5 5 5 4 5 4 5 6 5 6 4 5 6 6 5 6 6 2 2 0 1 4 4 3 3 4
10 10 10 10 9 10 10 8 7 7 8 8 9 9 9 9 8 7 7 6 6 7 6 6 6 6 6 7 6 7 6 6 7 7 6 6 5 5 5 5 4 5 5 5 5 5 5 4 4 4 6 6 6 5 5 2 1 3 1 4 4 4 3
11 11 11 11 10 10 9 8 9 9 10 9 9 9 8 8 8 7 6 6 7 7 7 6 7 7 6 6 7 7 6 6 7 6 5 5 4 5 4 4 3 4 3 4 4 3 2 4 5 6 5 6 5 5 5 3 3 2 2 1 4 6 5
11 10 11 11 11 10 9 8 9 9 9 9 9 9 8 8 7 7 7 7 7 7 7 8 6 6 6 7 7 7 6 6 7 5 5 5 5 5 4 4 5 5 6 7 5 4 5 3 4 6 5 6 5 4 4 3 2 2 4 2 2 3 5
11 10 11 11 11 10 9 8 9 9 10 9 9 9 8 7 7 8 7 7 7 7 7 7 6 6 7 8 6 5 6 6 5 5 5 5 4 4 4 5 5 6 5 6 5 6 4 5 6 7 6 5 4 3 2 2 1 1 3 4 5 5 4
11 12 12 10 11 10 9 8 8 10 9 9 8 8 8 8 8 8 7 7 7 7 7 6 6 7 7 7 7 7 6 5 5 6 6 6 6 4 4 4 4 4 4 6 5 5 5 4 6 7 5 3 3 4 4 2 1 1 2 3 3 4 3
13 12 12 10 11 10 9 8 8 9 9 9 9 7 8 9 9 8 8 7 7 7 7 6 7 6 6 7 8 8 6 6 5 5 6 5 5 5 4 4 4 5 6 7 5 6 5 5 6 5 5 4 3 4 4 4 2 0 1 3 4 3 3
13 12 12 11 11 10 10 9 8 9 9 8 8 9 8 8 8 8 8 8 7 7 7 8 8 6 6 6 8 8 7 6 5 5 5 5 6 5 4 4 4 6 7 7 5 6 5 5 5 6 5 4 3 3 4 4 4 4 4 4 4 3 4
13 12 12 11 12 11 10 9 9 8 9 9 9 9 9 7 8 9 8 7 7 7 7 8 7 6 7 7 7 7 6 5 5 5 5 5 4 4 4 5 6 6 7 7 4 4 5 5 5 5 4 4 4 4 4 5 5 5 5 4 4 4 4
11 11 11 11 10 10 10 9 9 9 8 10 10 9 8 8 7 8 8 7 7 8 8 7 7 6 7 7 7 6 6 6 6 5 5 5 6 6 7 7 6 7 7 5 5 4 4 5 4 4 3 3 4 4 5 5 5 6 5 5 4 3 4
11 11 10 10 10 10 10 9 9 8 9 10 9 9 8 8 7 7 7 7 7 7 7 7 7 7 7 7 7 7 7 7 6 6 6 6 7 7 7 6 6 6 6 4 4 4 4 4 3 4 3 3 4 5 5 5 6 6 6 5 4 5 4
10 10 10 10 10 10 10 8 8 9 9 9 7 7 7 8 8 7 7 8 7 7 7 7 6 7 7 7 7 8 7 7 7 7 7 8 8 8 6 5 5 5 5 6 6 5 5 4 3 3 3 4 4 4 4 5 5 6 6 5 6 5 6
10 10 10 11 11 10 9 8 9 10 9 9 7 7 7 8 8 8 8 8 7 6 6 5 8 12 9 8 8 7 7 7 7 8 9 9 9 8 7 6 6 10 9 6 5 5 5 5 4 3 2 3 3 4 4 4 5 4 4 5 5 4 6
11 12 11 10 9 10 9 8 10 10 9 8 7 7 8 8 7 8 9 8 7 6 6 6 13 14 14 13 8 7 7 7 6 6 7 8 8 8 7 6 5 6 6 4 1 1 2 1 2 3 2 2 1 2 2 3 3 2 3 3 2 3 3
12 12 11 11 10 9 8 9 9 9 9 8 7 7 8 7 7 7 7 8 7 6 5 9 15 15 14 14 10 8 6 6 6 6 7 8 7 7 7 7 5 4 4 3 3 2 2 3 3 4 5 4 3 3 1 1 1 2 1 2 4 4 3
12 11 11 10 9 8 9 10 9 9 9 7 7 8 8 7 7 7 8 8 6 5 4 9 14 15 14 14 13 9 6 5 6 6 6 8 7 7 6 6 5 4 3 8 5 3 3 2 3 4 5 5 5 6 6 5 4 1 1 1 3 5 4
12 11 10 10 9 9 10 10 8 8 8 7 8 8 8 8 7 7 8 8 7 6 6 9 14 14 13 14 13 10 5 6 5 4 6 7 7 8 8 7 6 4 4 3 3 3 3 1 1 2 3 4 4 6 6 7 7 7 4 4 4 4 6
12 11 11 10 9 10 10 9 8 8 8 8 8 9 9 8 7 8 8 8 8 7 6 10 14 14 13 14 14 10 6 5 5 5 6 6 7 8 7 7 6 6 4 4 3 4 2 1 0 1 1 3 4 6 4 4 4 4 4 5 6 8 10
12 11 11 10 10 10 9 10 9 7 7 6 6 6 6 7 8 8 8 9 9 7 6 11 14 14 14 13 11 6 5 5 5 5 5 6 7 7 8 7 6 6 6 5 5 7 4 2 1 1 3 4 4 4 4 6 8 6 5 5 6 8 8
12 12 12 12 11 10 10 9 7 7 8 7 7 7 7 7 7 8 9 9 10 8 7 8 13 14 13 13 8 5 5 5 4 4 5 5 6 6 5 4 5 7 6 5 6 8 7 6 2 1 3 4 4 1 2 2 3 8 10 11 12 12 13
13 13 12 12 12 10 9 8 8 8 9 8 8 7 7 7 7 8 10 9 10 10 7 8 11 14 14 13 8 6 5 5 5 5 5 4 5 5 5 10 9 7 7 5 8 8 7 4 2 2 2 4 2 2 2 3 2 3 7 9 9 10 11
13 14 14 12 11 11 10 8 7 8 8 8 7 7 7 7 7 6 8 9 10 11 9 8 10 11 13 12 7 4 4 6 6 5 5 5 3 5 4 6 10 9 7 8 10 7 7 5 3 2 1 1 2 2 1 2 4 5 7 8 9 9 10
13 13 13 11 10 10 9 7 8 8 8 8 8 7 7 8 9 7 7 8 8 8 9 7 8 11 12 12 11 5 3 5 7 6 5 6 5 2 4 4 7 12 12 12 10 9 7 6 4 3 2 2 1 2 2 4 2 2 4 4 6 5 7
13 12 11 11 10 9 8 8 8 9 8 7 8 7 8 8 9 8 8 9 8 7 8 9 8 11 12 12 11 8 4 4 2 6 7 7 6 6 5 5 5 10 13 12 11 10 8 7 6 3 2 1 0 1 2 4 4 5 4 5 5 6 7
11 11 10 10 10 10 8 8 9 9 8 8 8 8 7 8 8 8 8 9 8 9 8 12 9 12 13 13 12 9 6 4 4 5 5 4 3 5 7 7 5 9 13 13 12 10 9 8 6 2 2 6 4 1 1 1 2 4 5 5 5 6 7
11 9 10 11 10 9 8 9 8 9 9 8 8 8 8 8 8 8 7 7 7 8 8 9 14 11 13 13 13 11 9 7 7 6 7 4 2 0 2 4 5 12 13 13 11 11 9 9 6 3 6 5 4 0 1 2 2 3 5 5 5 6 7
11 10 11 10 8 8 9 9 8 8 8 9 8 8 7 7 7 8 8 6 6 7 7 7 10 14 12 14 13 13 12 9 9 5 4 6 3 1 2 4 6 11 13 13 12 11 9 8 5 7 7 6 5 2 1 3 3 3 4 5 6 6 6
Wind_Direction
146 144 144 133 124 123 116 116 112 106 92 87 95 87 89 92 97 100 103 93 88 82 81 77 84 81 81 70 71 77 76 88 113 119 123 37 130 165 12 52 62 75 78 80 131 164 152 152 244 296 144 167 54 170 206 202 213 242 270 285 282 284 329
133 131 128 129 127 125 121 124 108 93 86 83 84 89 78 72 74 90 94 96 94 93 91 88 79 80 85 91 80 70 80 78 85 104 95 74 72 47 59 36 61 76 82 73 95 114 139 130 166 179 205 313 340 295 272 246 248 226 244 257 265 344 28
132 128 131 134 133 134 125 119 107 100 96 89 83 79 79 82 87 87 93 98 99 95 96 98 92 82 84 92 95 99 95 91 81 86 96 93 83 69 78 98 69 38 46 36 23 29 59 99 160 196 185 172 194 270 260 279 262 270 259 276 317 44 56
144 140 138 137 138 135 128 125 120 110 99 99 96 86 90 94 90 89 97 101 100 103 102 95 96 104 106 100 96 89 84 91 92 91 86 80 84 76 69 73 81 88 107 114 72 49 101 90 71 44 105 186 183 213 275 244 315 335 350 78 86 58 66
149 148 145 144 142 139 136 133 125 116 111 111 109 104 100 100 97 96 97 100 104 110 114 112 108 106 97 93 88 86 82 81 86 88 90 86 81 82 73 74 79 86 76 89 105 91 87 92 117 131 89 311 109 211 279 27 338 13 58 57 72 72 67
144 141 141 140 141 141 141 138 140 139 138 130 133 123 125 119 115 111 109 103 103 106 107 99 100 99 100 96 92 85 86 87 91 94 92 92 94 93 98 82 85 76 79 83 83 88 88 105 101 94 285 114 129 274 1 80 74 11 63 61 32 51 58
142 141 145 144 145 144 146 147 150 153 154 154 146 140 141 130 116 107 105 107 109 110 108 109 107 107 105 99 92 91 90 95 90 89 93 93 88 89 89 88 76 76 67 61 76 76 71 64 57 75 57 17 51 60 33 41 16 55 357 32 19 38 26
142 143 144 146 145 144 145 145 148 152 154 153 147 144 131 118 109 100 98 94 95 103 109 110 106 106 106 97 95 100 94 92 91 91 89 94 92 89 85 89 84 65 65 66 70 72 79 77 90 69 86 93 27 37 55 357 38 57 17 337 21 18 2
143 141 140 142 144 144 146 148 152 156 153 146 141 126 120 119 116 115 111 112 112 111 111 113 117 114 107 105 109 109 102 94 96 92 97 95 95 95 94 83 78 77 72 66 67 67 71 88 83 76 79 86 121 84 356 30 20 8 15 30 337 357 349
147 148 144 142 141 139 140 146 155 158 148 139 132 128 128 127 129 125 123 129 129 125 115 119 121 118 111 112 116 109 105 105 98 99 97 95 98 98 91 95 101 97 82 71 57 55 54 64 82 84 85 90 109 116 71 38 348 12 348 14 30 318 344
145 137 134 137 137 137 139 145 153 147 145 137 131 134 129 121 118 123 132 142 134 126 127 125 121 115 116 114 115 108 110 107 101 93 93 99 100 99 99 93 104 100 90 73 69 61 63 69 88 95 91 89 95 94 123 105 243 353 2 331 4 322 339
140 136 133 135 138 141 146 150 151 139 125 125 127 128 126 129 138 142 137 143 134 130 127 124 118 117 121 118 111 111 110 106 104 104 104 106 113 106 105 108 112 99 89 78 63 54 57 63 82 97 88 77 69 85 91 105 68 293 64 358 321 323 330
140 139 139 139 143 145 149 149 142 135 135 132 131 132 136 140 142 141 140 138 133 130 129 124 125 128 122 117 118 114 114 111 107 107 110 109 110 106 107 102 90 84 74 78 69 52 49 73 82 81 83 82 69 73 86 96 99 305 290 330 318 308 342
140 137 138 142 143 148 150 149 144 137 131 134 136 136 142 146 145 140 139 137 136 135 132 133 133 131 124 121 121 120 118 114 117 121 115 108 107 98 94 88 78 75 76 64 57 57 43 21 43 65 87 83 72 62 82 92 59 329 310 298 318 308 316
139 139 140 144 145 151 153 153 146 137 134 141 137 142 149 151 143 140 137 137 137 135 135 135 137 129 129 129 126 122 121 122 118 117 112 109 102 107 103 91 78 75 77 80 62 50 51 64 58 51 35 65 75 65 77 81 27 89 321 318 339 331 339
144 144 144 147 151 154 156 151 147 139 140 141 142 151 155 149 145 141 138 141 140 140 139 137 135 133 136 133 128 126 128 120 121 120 112 113 115 114 100 93 79 71 72 69 61 54 45 58 63 61 42 40 49 34 23 44 95 13 339 312 301 338 343
147 147 148 152 154 157 155 152 148 144 145 147 150 154 151 147 143 142 143 144 145 144 139 136 136 138 138 131 128 128 124 124 124 122 123 122 118 114 121 105 97 90 79 68 49 45 37 58 64 60 48 21 34 21 7 3 24 84 311 8 318 6 329
148 150 150 153 157 157 158 154 154 152 150 152 151 148 149 146 143 145 148 151 149 145 140 139 138 137 131 126 128 128 130 132 134 136 136 136 131 128 125 121 106 89 87 81 52 49 35 55 63 56 44 20 13 11 8 14 10 40 51 23 330 325 359
148 150 152 156 158 161 161 160 157 155 153 147 148 150 150 150 149 148 151 151 147 143 140 139 141 140 133 131 128 131 132 132 134 130 127 123 121 112 95 82 82 86 85 91 81 60 50 44 53 55 41 17 11 19 25 15 23 29 38 17 17 350 5
148 150 156 158 158 162 164 162 154 155 149 147 149 152 152 147 148 148 150 147 147 144 143 142 142 140 136 135 135 130 125 127 126 121 117 111 97 88 85 82 78 80 83 86 86 81 73 55 56 55 40 31 24 42 30 25 23 29 32 22 359 21 3
147 150 154 157 162 165 163 158 153 144 144 148 152 154 154 149 149 145 148 146 147 143 142 143 143 140 139 137 133 128 130 130 123 117 110 93 86 83 84 83 84 87 92 90 99 96 91 86 65 50 14 44 41 47 38 26 30 27 26 18 19 354 354
145 150 156 161 165 165 161 154 147 143 147 149 152 152 148 146 145 143 144 146 146 145 145 150 149 147 141 138 132 132 134 133 130 124 111 105 102 99 93 95 94 96 102 102 101 98 92 92 104 82 19 54 51 55 40 37 35 32 21 32 3 0 358
151 155 161 167 169 163 158 152 147 145 149 150 150 147 146 147 145 146 146 146 145 146 149 150 153 147 144 142 137 137 137 138 138 139 132 123 117 117 120 116 120 118 108 111 98 89 76 75 104 134 121 87 77 64 57 54 39 35 40 27 359 351 346
154 161 166 168 168 162 152 147 145 144 148 151 150 150 148 149 146 148 146 147 148 148 151 154 148 143 142 139 137 140 144 147 142 129 117 120 129 128 124 125 126 125 124 124 93 77 67 21 327 331 1 20 78 108 94 65 33 69 59 20 312 338 313
157 163 165 169 168 159 142 142 145 146 148 150 151 147 150 151 146 145 141 142 138 141 149 152 147 145 143 143 142 143 141 137 133 135 137 138 134 127 133 136 141 137 145 165 182 204 226 255 265 285 294 299 313 310 194 147 89 38 41 1 321 290 275
157 163 167 167 165 156 146 145 148 150 157 155 145 149 155 144 146 142 141 134 132 135 136 156 148 147 147 146 141 134 135 132 141 151 147 143 138 138 145 151 150 161 178 197 189 190 203 254 276 273 280 290 288 264 260 245 227 213 164 195 249 286 255
159 165 167 167 165 158 152 153 152 153 151 146 148 152 148 145 145 143 141 132 133 136 133 156 140 141 142 141 139 136 140 146 162 165 147 142 147 149 153 156 162 174 203 174 128 150 158 190 248 249 248 257 263 266 257 251 249 237 221 217 223 254 274
161 165 168 167 165 160 155 152 153 155 155 153 153 157 152 148 151 144 137 133 133 141 148 153 137 134 135 136 139 138 145 163 167 162 152 154 156 158 160 163 168 173 163 141 146 138 117 115 76 358 316 275 256 253 236 234 235 235 222 216 224 236 261
161 165 167 168 165 161 158 159 155 152 142 137 140 135 133 140 146 143 135 138 137 144 153 158 139 137 133 132 129 141 155 164 162 163 163 163 158 162 164 169 170 155 155 149 140 120 121 122 91 17 324 303 292 261 231 224 226 221 219 218 225 236 250
164 168 170 168 167 163 160 160 151 152 144 146 147 148 148 149 142 134 139 144 143 148 154 175 150 141 138 133 128 150 163 160 150 150 147 145 147 154 156 157 154 149 149 153 147 131 139 120 103 53 348 309 316 61 38 0 265 246 248 249 251 258 268
169 171 172 173 168 165 163 159 157 158 154 152 151 150 142 134 131 140 145 149 151 149 161 179 170 152 147 145 146 155 159 152 151 146 142 135 138 133 140 126 135 145 151 156 155 140 158 139 99 82 16 340 354 75 336 309 311 318 335 323 305 296 288
174 175 175 174 169 167 169 163 153 155 153 150 150 141 136 130 128 139 144 147 148 149 162 178 181 163 153 152 146 160 153 151 150 149 145 151 131 131 124 115 133 149 150 155 150 148 144 129 115 94 68 14 65 66 298 344 12 345 339 344 334 340 333
177 177 174 170 168 167 163 151 149 148 148 149 148 145 139 134 137 143 140 139 149 153 156 163 179 179 170 164 163 154 121 135 163 162 159 167 139 163 148 132 134 142 144 149 151 142 139 126 125 124 106 78 63 353 317 351 349 337 307 303 298 308 300
173 173 171 167 163 162 163 154 147 146 147 147 145 146 143 139 137 141 141 144 156 165 166 172 182 180 181 178 175 155 132 99 135 171 167 176 164 166 184 174 161 159 155 158 154 150 143 134 130 129 133 140 172 247 5 356 325 332 304 299 307 311 310
170 166 166 166 164 165 159 153 153 149 146 149 152 149 145 143 139 145 154 159 166 170 179 175 174 188 187 185 183 164 128 129 111 128 153 161 144 180 184 183 177 180 168 165 162 158 154 146 150 144 193 208 230 1 338 294 300 315 315 309 312 315 305
166 167 168 171 166 154 152 154 159 156 146 142 144 146 147 147 144 151 158 169 168 170 176 184 182 181 191 188 186 174 150 130 103 98 106 106 119 229 278 228 207 178 174 168 165 163 162 156 158 195 215 238 247 8 326 313 309 313 310 308 309 300 291
165 163 163 163 152 141 155 154 150 154 147 142 145 149 153 148 150 157 166 169 175 171 177 178 188 184 183 192 190 181 176 155 121 117 112 115 111 173 254 223 192 188 179 175 169 167 167 169 192 205 221 238 257 287 293 297 297 279 287 302 300 279 283